Estación de Quillota

Ultimos registro cada 15 minutos 21
Estación Fecha / Hora Temperatura Humedad Lluvia Velocidad Dirección Radiación Presion
21 Quillota 04-09-2026 05:00 5,9 93 0 0 157 0 1019,9
20 Quillota 04-09-2026 04:45 5,3 92 0 0 157 0 1019,8
19 Quillota 04-09-2026 04:30 5,5 93 0 0 157 0 1019,7
18 Quillota 04-09-2026 04:15 5,7 92 0 0 157 0 1019,9
17 Quillota 04-09-2026 04:00 5,8 92 0 0 157 0 1020
16 Quillota 04-09-2026 03:45 6,1 92 0 0 157 0 1020
15 Quillota 04-09-2026 03:30 6,5 92 0 0 157 0 1020,1
14 Quillota 04-09-2026 03:15 6,9 91 0 0 157 0 1020,2
13 Quillota 04-09-2026 03:00 6,3 92 0 0 157 0 1020,4
12 Quillota 04-09-2026 02:45 6,1 91 0 0 158 0 1020,3
11 Quillota 04-09-2026 02:30 6,7 92 0 0 134 0 1020,5
10 Quillota 04-09-2026 02:15 6,7 91 0 0 134 0 1020,6
9 Quillota 04-09-2026 02:00 7 92 0 0 134 0 1020,5
8 Quillota 04-09-2026 01:45 6,8 91 0 0 134 0 1020,7
7 Quillota 04-09-2026 01:30 6,7 90 0 0 134 0 1021
6 Quillota 04-09-2026 01:15 7,4 91 0 0 134 0 1021
5 Quillota 04-09-2026 01:00 7,4 90 0 0 134 0 1021,3
4 Quillota 04-09-2026 00:45 7,7 90 0 0 134 0 1021,2
3 Quillota 04-09-2026 00:30 8,4 91 0 0 134 0 1021,4
2 Quillota 04-09-2026 00:15 7,3 89 0 0 131 0 1021,5
1 Quillota 04-09-2026 00:00 7,8 90 0 0 130 0 1021,2